Lexington Weather

Lexington, Massachusetts, USA

57°F
12/4/2020 1:19pm 
  • Lexington Conditions: Partly cloudy
  • Temperature: 57.0°F / 13.9°CWarmer 3.0°F than last hour.
  • Dew Point: 36.0°FIncreased 0.8°Fsince last hour.
  • Relative Humidity: 45%Decreased 4.0% since last hour.
  • Wind: Wind from W W 3 mph, 10-min avg: 5 mph, gust: 13 mph
  • Barometer: 29.90 in Steady
  • Visibility: 10 miles
  • Rain Today: 0.00 in
  •   
Southeast Middlesex County - Winter Storm Watch
 - SEE ALL NEARBY ALERTS -

Regional Weather Roundup
for Boston / Norton, MA

        
000
ASUS41 KBOX 021504
RWRBOX

REGIONAL WEATHER ROUNDUP
NATIONAL WEATHER SERVICE BOSTON/NORTON MA
1000 AM EST WED DEC 02 2020

NOTE:  "FAIR" INDICATES FEW OR NO CLOUDS BELOW 12,000 FEET WITH NO 
SIGNIFICANT WEATHER AND/OR OBSTRUCTIONS TO VISIBILITY.

MAZALL-021600-
EASTERN MASSACHUSETTS
  
CITY           SKY/WX    TMP DP  RH WIND       PRES   REMARKS
BOSTON         MOSUNNY   40  25  55 SW15G24   29.88F WCI  32          
BEVERLY        SUNNY     41  26  55 SW14      29.86S                  
LAWRENCE       SUNNY     40  26  57 SW15      29.88R WCI  32          
BEDFORD        MOSUNNY   41  25  53 SW15      29.86R                  
BLUE HILL        N/A     38  25  59 SW18G26   29.85R WCI  28          
NORWOOD        SUNNY     43  25  49 SW12G24   29.88S                  
MARSHFIELD     NOT AVBL                                               
PLYMOUTH       MOSUNNY   43  28  55 SW22      29.89R                  
TAUNTON        MOSUNNY   44  28  53 W14G25    29.89R                  
NEW BEDFORD    SUNNY     44  29  55 W13       29.89S                  
$$

MAZALL-021600-
CAPE COD AND THE ISLANDS
  
CITY           SKY/WX    TMP DP  RH WIND       PRES   REMARKS
FALMOUTH       NOT AVBL                                               
HYANNIS        NOT AVBL                                               
CHATHAM        CLOUDY    46  33  60 VRB7G17   29.92R                  
NANTUCKET      CLOUDY    48  36  63 W17       29.91S                  
MARTHAS VNYRD  CLOUDY    45  32  60 SW12      29.92R                  
$$
 
MAZALL-021600-
CENTRAL AND WESTERN MASSACHUSETTS
  
CITY           SKY/WX    TMP DP  RH WIND       PRES   REMARKS
WORCESTER      MOSUNNY   35  24  64 SW13      29.83R WCI  26          
FITCHBURG      CLOUDY    38  25  59 SW7       29.86R                  
ORANGE         PTSUNNY   36  26  67 S12       29.84R WCI  28          
SPRINGFIELD    NOT AVBL                                               
WESTFIELD      MOSUNNY   39  28  64 SW12      29.85R WCI  32          
NORTH ADAMS    PTSUNNY   37 N/A N/A SW10      29.81R WCI  30          
PITTSFIELD     PTSUNNY   33  26  75 SW8       29.78R WCI  26          
$$
 
RIZALL-021600-
RHODE ISLAND
  
CITY           SKY/WX    TMP DP  RH WIND       PRES   REMARKS
PROVIDENCE     PTSUNNY   40  29  64 SW10      29.91R                  
NEWPORT        MOSUNNY   43  27  53 SW9       29.90R                  
WESTERLY       SUNNY     43  28  55 SW12G25   29.90F                  
$$
 
CTZALL-021600-
CONNECTICUT
  
CITY           SKY/WX    TMP DP  RH WIND       PRES   REMARKS
BRADLEY INTL   PTSUNNY   38  26  62 S8        29.87R                  
HARTFORD       PTSUNNY   39  26  59 SW9       29.88S                  
BRIDGEPORT     CLOUDY    41  28  60 W15G23    29.91R                  
DANBURY        CLOUDY    38  27  64 SW13G22   29.88S WCI  30          
GROTON         NOT AVBL                                               
NEW HAVEN      CLOUDY    42  29  59 SW13G25   29.90R                  
CHESTER        FAIR      39  27  60 SW7G13    29.88F                  
MERIDEN        PTSUNNY   38  25  59 SW12G21   29.89S WCI  30          
WILLIMANTIC    MOSUNNY   38  25  59 SW10      29.89S WCI  31          
OXFORD         PTSUNNY   37  28  70 W9        29.87R WCI  30          
$$

MEZ002-015-021-024-NHZ003-005-008-011-012-014-VTZ005-008-021600-
NORTHERN NEW ENGLAND
  
CITY           SKY/WX    TMP DP  RH WIND       PRES   REMARKS
PORTLAND ME    MOSUNNY   39  25  57 S10G18    29.85S                  
BANGOR ME      MOSUNNY   44  29  55 S16       29.85R                  
CONCORD NH     SUNNY     38  24  57 SW12      29.83R WCI  30          
MANCHESTER NH  MOSUNNY   39  23  52 S9        29.83R                  
NASHUA NH      NOT AVBL                                               
PORTSMOUTH NH  NOT AVBL                                               
JAFFREY NH     CLOUDY    34  24  67 S8        29.81R WCI  27          
KEENE NH       NOT AVBL                                               
BURLINGTON VT  PTSUNNY   38  27  64 S18G28    29.73R WCI  28          
MT. WASHINGTON FOG       14  14 100 W23         N/A  VSB 1/16WCI  -5  
$$

NYZ052-076-021600-
EASTERN NEW YORK
  
CITY           SKY/WX    TMP DP  RH WIND       PRES   REMARKS
ALBANY         PTSUNNY   35  28  75 SW7       29.82R WCI  29          
NEW YORK CITY  PTSUNNY   42  27  55 W15G26    29.92R                  
$$
 
ANZALL-021600-
MARINE OBSERVATIONS
  
STATION/POSITION TIME  TEMP    WIND        PRES    VSBY  WAVE
                       AIR SEA DIR/SP/G                  HT/PER
                 (UTC) (F)     (DEG/KT/KT) (MB)    (MI)  (FT/S)
BOSTON BUOY      1440   40 50  210/ 16/ 21 1012.5R
BUZZARDS BAY     1400          240/ 25/ 27 1013.1R
NANTUCKET SOUND  1440      51  250/ 16/ 19   N/A
MASS BAY-STELLWA NOT AVBL
ISLE OF SHOALS   1400   38     220/ 20/ 23 1010.7R
S OF BLOCK IS    1426      57                N/A          10/11
$$

......................KEY.........................
  SKY/WX - SKY CONDITION/PRESENT WEATHER
  TMP    - TEMPERATURE IN FAHRENHEIT
  DWPT   - DEWPOINT IN FAHRENHEIT
  RH     - RELATIVE HUMIDITY IN PERCENT
  WIND   - DIRECTION AND SPEED IN MPH
  PRES   - MEAN SEA LEVEL PRESSURE IN INCHES OF HG
  WCI    - WIND CHILL INDEX
  VSB    - VISIBILITY IN MILES
  HX     - HEAT INDEX
  TC     - TEMPERATURE IN CELSIUS
  VRB    - VARIABLE WIND DIRECTION
  N/A    - NOT AVAILABLE
  
      

Other recent Regional Weather Roundups

Fri Dec 4, 1:04pm

Fri Dec 4, 12:04pm

Fri Dec 4, 11:04am

Fri Dec 4, 10:05am

Fri Dec 4, 9:04am

Fri Dec 4, 8:04am

Fri Dec 4, 7:04am

Fri Dec 4, 6:04am

Fri Dec 4, 5:04am

Fri Dec 4, 4:04am

Fri Dec 4, 3:04am

Fri Dec 4, 2:04am

Fri Dec 4, 1:04am

Fri Dec 4, 12:04am

Thu Dec 3, 11:04pm

Thu Dec 3, 10:04pm

Thu Dec 3, 9:04pm

Thu Dec 3, 8:04pm

Thu Dec 3, 7:04pm

Thu Dec 3, 6:04pm

Thu Dec 3, 5:04pm

Thu Dec 3, 4:05pm

Thu Dec 3, 3:04pm

Thu Dec 3, 2:04pm

Thu Dec 3, 1:04pm

Thu Dec 3, 12:04pm

Thu Dec 3, 11:04am

Thu Dec 3, 10:04am

Thu Dec 3, 9:04am

Thu Dec 3, 8:04am

Thu Dec 3, 7:04am

Thu Dec 3, 6:04am

Thu Dec 3, 5:04am

Thu Dec 3, 4:04am

Thu Dec 3, 3:04am

Thu Dec 3, 2:04am

Thu Dec 3, 1:04am

Thu Dec 3, 12:04am

Wed Dec 2, 11:04pm

Wed Dec 2, 10:04pm

Wed Dec 2, 9:04pm

Wed Dec 2, 8:04pm

Wed Dec 2, 7:04pm

Wed Dec 2, 6:05pm

Wed Dec 2, 5:04pm

Wed Dec 2, 4:05pm

Wed Dec 2, 3:05pm

Wed Dec 2, 2:04pm

Wed Dec 2, 1:04pm

Wed Dec 2, 12:04pm

Wed Dec 2, 11:04am

Wed Dec 2, 9:05am

Wed Dec 2, 8:04am

Wed Dec 2, 7:04am

Wed Dec 2, 6:04am

Wed Dec 2, 5:04am

Wed Dec 2, 4:04am

Wed Dec 2, 3:04am

Wed Dec 2, 2:04am

Wed Dec 2, 1:04am

Wed Dec 2, 12:04am

Tue Dec 1, 11:04pm

Tue Dec 1, 10:04pm

Tue Dec 1, 9:04pm

Tue Dec 1, 8:04pm

Tue Dec 1, 7:04pm

Tue Dec 1, 6:05pm

Tue Dec 1, 5:04pm

Tue Dec 1, 4:05pm

Tue Dec 1, 3:04pm

Tue Dec 1, 2:04pm

Tue Dec 1, 12:04pm

Tue Dec 1, 11:04am

Tue Dec 1, 10:04am

Tue Dec 1, 9:04am

Tue Dec 1, 8:04am

Tue Dec 1, 7:04am

Tue Dec 1, 6:04am

Tue Dec 1, 5:05am

Tue Dec 1, 4:04am

Tue Dec 1, 3:04am

Tue Dec 1, 2:04am

Tue Dec 1, 1:04am

Tue Dec 1, 12:04am

Mon Nov 30, 11:04pm

Mon Nov 30, 10:04pm

Mon Nov 30, 9:04pm

Mon Nov 30, 8:04pm

Mon Nov 30, 7:05pm

Mon Nov 30, 6:04pm

Mon Nov 30, 5:05pm

Mon Nov 30, 4:04pm

Mon Nov 30, 3:05pm

Mon Nov 30, 2:05pm

Mon Nov 30, 1:04pm

Mon Nov 30, 12:05pm

Mon Nov 30, 11:04am

Mon Nov 30, 10:04am

Mon Nov 30, 9:04am

Mon Nov 30, 8:04am

Mon Nov 30, 7:05am

Mon Nov 30, 6:04am

Mon Nov 30, 5:05am

Mon Nov 30, 4:04am

Mon Nov 30, 3:04am

Mon Nov 30, 2:04am

Mon Nov 30, 1:04am

Mon Nov 30, 12:04am

Sun Nov 29, 11:04pm

Sun Nov 29, 10:04pm

Sun Nov 29, 9:04pm

Sun Nov 29, 8:04pm

Sun Nov 29, 7:04pm

Sun Nov 29, 6:04pm

Sun Nov 29, 5:04pm

Sun Nov 29, 4:05pm

Sun Nov 29, 3:04pm

Sun Nov 29, 2:04pm

Sun Nov 29, 1:04pm

Sun Nov 29, 12:04pm

Sun Nov 29, 11:04am

Sun Nov 29, 10:04am

Sun Nov 29, 9:04am

Sun Nov 29, 8:05am

Sun Nov 29, 7:04am

Sun Nov 29, 6:04am

Sun Nov 29, 5:04am

Sun Nov 29, 4:04am

Sun Nov 29, 3:04am

Sun Nov 29, 2:05am

Sun Nov 29, 1:04am

Sun Nov 29, 12:04am

Sat Nov 28, 11:04pm

Sat Nov 28, 10:04pm

Sat Nov 28, 9:04pm

Sat Nov 28, 8:04pm

Sat Nov 28, 7:04pm

Sat Nov 28, 6:04pm

Sat Nov 28, 5:04pm

Sat Nov 28, 4:04pm

Sat Nov 28, 3:04pm

Sat Nov 28, 2:04pm

Sat Nov 28, 1:04pm

Sat Nov 28, 12:04pm

Sat Nov 28, 11:04am

Sat Nov 28, 10:04am

Sat Nov 28, 9:04am

Sat Nov 28, 8:04am

Sat Nov 28, 7:04am

Sat Nov 28, 6:04am

Sat Nov 28, 5:04am

Sat Nov 28, 4:04am

Sat Nov 28, 3:05am

Sat Nov 28, 2:04am

Sat Nov 28, 1:04am

Sat Nov 28, 12:04am

Fri Nov 27, 11:05pm

Fri Nov 27, 10:04pm

Fri Nov 27, 9:04pm

Fri Nov 27, 8:04pm

Fri Nov 27, 7:04pm

Fri Nov 27, 6:04pm

Fri Nov 27, 5:04pm

Fri Nov 27, 4:05pm

Fri Nov 27, 3:05pm

Fri Nov 27, 2:05pm

Meta data:

ID: af31e965-26d9-4ec7-98f9-1a23f7ab63e7
Link: https://api.weather.gov/products/af31e965-26d9-4ec7-98f9-1a23f7ab63e7